Temp_Advection
nan nan nan nan nan nan nan nan nan nan nan nan nan nan nan nan nan nan nan nan nan nan nan nan nan nan nan nan nan nan nan nan nan nan nan nan nan nan nan nan nan nan nan nan nan nan nan
nan -1 -1 -0 0 0 -0 -0 -0 -0 -0 -0 0 -0 -0 0 0 0 -0 -0 -0 -0 -0 -0 -0 -0 0 -0 -0 0 -0 -0 -0 -0 0 -0 -0 -0 0 -0 -0 -0 -0 -0 0 0 nan
nan 0 -1 -1 -0 -0 0 0 -0 0 -0 -0 -0 0 -0 0 0 0 -0 -0 -0 -0 -0 -0 -0 -0 -1 -1 -0 0 0 -0 0 -0 -0 -0 -0 0 -0 0 0 0 -0 -0 0 -0 nan
nan 0 -1 -1 -0 -0 0 0 -0 -0 -0 -0 -0 0 -0 0 0 0 -0 -0 -0 -0 -0 -0 -0 -0 -1 -0 -0 -0 -0 0 -0 -0 0 -0 0 0 -0 0 -0 -0 -0 0 -0 -0 nan
nan -0 -0 -0 -1 -0 0 -0 -0 -0 0 -0 -0 -0 -0 0 0 0 -0 -0 -0 -0 -0 -0 -0 -0 -1 -0 -0 -0 -0 0 -0 0 0 0 0 0 -0 -0 -0 -0 0 0 -0 -0 nan
nan 0 -0 -1 -1 -0 0 -0 -0 -0 -0 -0 -0 -0 -0 -0 -0 -0 -0 -0 0 0 -0 -0 -0 -0 -1 0 -0 -0 -0 -0 -0 0 0 0 -0 -1 -0 0 -0 -0 -0 0 0 -0 nan
nan 0 -0 -1 -0 0 0 -0 -0 -0 -0 -0 -0 -0 -0 -0 -0 -0 -0 -0 -0 -0 -0 -1 -0 -0 0 -0 0 -0 -0 -0 -0 -0 -0 -1 -0 0 -0 -0 0 0 0 -0 -0 -0 nan
nan -0 -0 -0 -0 0 -0 -0 -0 -0 -0 -0 -0 -0 -0 0 -0 -0 -0 -0 -0 0 -0 -1 -0 -0 -0 0 -0 -0 -0 0 -0 -0 -0 -0 0 -0 -0 -0 -0 -0 0 0 -0 -0 nan
nan -0 -0 -1 -0 0 -0 -0 -0 -0 -0 -0 -0 -0 -0 -0 0 -0 -0 -0 0 0 -0 -0 -0 -0 -0 -0 0 0 0 -0 -0 -0 -0 0 0 -0 -0 -0 -0 0 0 0 -0 -0 nan
nan 0 -1 -1 0 -0 -0 -0 -0 -0 -0 -0 -0 -0 -0 -0 -0 -0 -0 -0 0 0 -0 -1 -0 -0 -0 -0 0 0 0 -0 -0 -0 0 0 -0 0 -0 0 0 0 -0 -0 -0 -0 nan
nan -0 -1 -0 -0 -0 -0 -0 -0 -0 -0 -0 -0 -0 -0 -0 -0 -0 -0 -0 -0 -0 0 -0 -0 0 0 0 0 0 0 0 -0 -0 0 -0 -0 -0 0 0 0 -0 -0 -0 -0 -0 nan
nan -1 -1 -0 0 -0 -0 -0 -0 -0 -0 -0 -0 -0 -0 -0 -0 -0 -0 -0 -0 -1 -0 -0 0 0 -0 -0 -0 0 0 -0 -1 -1 -0 0 -0 -0 -0 -0 -0 -0 -0 -1 -0 -0 nan
nan -1 -1 -0 0 -0 -0 -0 -0 -0 -0 -0 -0 -0 -0 -0 -0 -0 0 0 -1 0 0 0 0 0 -0 -0 -0 -0 -0 -0 0 -0 -0 -0 -0 -0 0 -0 -0 -0 -0 -0 0 -0 nan
nan -1 -1 -0 -0 -0 -0 -0 -0 -0 -0 -0 0 0 0 -0 -0 -0 -0 -1 0 -0 -0 0 0 -0 0 -0 -0 -0 -0 -0 -0 -0 -0 0 -0 0 -0 -0 -0 -0 -0 -0 0 0 nan
nan -2 -0 -0 -0 -0 -0 -0 -0 -0 -0 0 -0 0 -0 -0 0 0 0 -0 -0 -0 -0 -0 0 0 0 -0 -0 -0 -0 0 0 0 -0 -0 0 -0 0 -0 -0 -0 -0 -0 -0 0 nan
nan -1 -1 -1 -0 -0 -0 -0 -0 -0 -0 0 0 -0 -0 0 0 -0 -1 -0 -0 -0 -0 -0 -0 -0 0 0 -0 -0 -0 0 -0 -0 0 -0 0 -0 -0 -0 -0 -0 -0 -0 0 0 nan
nan -1 -1 -0 -0 -1 -0 -0 -0 -0 -0 0 -0 1 0 0 1 0 -0 -0 -1 -0 -0 -0 -0 -0 0 0 -0 -0 0 0 -0 0 -0 -0 -0 -0 -0 -0 0 -0 -0 -0 -0 -0 nan
nan -1 -1 -0 -1 -0 -0 -1 -0 0 0 -0 -0 0 1 0 -1 -0 0 -0 -0 -0 -0 -0 -0 -0 -0 0 -0 0 0 0 -0 -0 -0 -0 -0 0 0 0 0 -0 -0 -0 0 0 nan
nan -1 -1 -1 -1 -0 -0 -0 -0 -0 -0 -1 -0 -0 1 0 -1 -0 -1 -0 -0 -0 -0 0 -0 -0 -0 -0 0 0 0 -0 0 -0 0 0 -0 0 -0 -0 -0 0 -0 -0 -0 0 nan
nan -1 -0 -1 -0 -0 -0 -0 -0 -0 -0 -0 -0 -0 0 1 -0 -0 0 -0 0 -0 -0 -0 -0 -0 -0 -0 -0 0 0 -0 -0 -0 0 -0 -0 -0 0 0 0 0 -0 -0 -1 -0 nan
nan -0 -0 -0 0 -0 -0 -0 -0 -0 0 0 0 -0 -0 0 -0 0 0 0 0 0 0 -0 -0 -0 -0 -0 -0 -0 0 0 -0 -0 -0 -0 0 -0 -0 -0 -0 0 0 0 0 -0 nan
nan -0 -0 0 -0 -0 -0 -0 -0 0 -0 -0 -0 -0 -0 0 1 -0 0 0 0 0 0 -0 -0 -0 -0 -0 0 0 0 0 0 -0 -0 -0 0 0 0 -0 -0 -0 0 0 0 0 nan
nan -0 -0 0 -0 -0 -0 -0 0 -0 -0 -0 -0 -0 -0 0 0 0 -0 -0 0 0 -0 0 -0 -0 -0 0 -0 -0 -0 -0 0 -0 -0 -0 0 0 0 -0 -0 -0 -0 -0 -0 -0 nan
nan -0 0 0 -0 -0 -0 -0 -0 -0 -0 -0 -0 -0 -1 0 0 -0 -0 0 0 0 0 0 -0 -0 0 1 1 -1 -2 -2 -2 -1 -0 -0 -0 -0 0 0 -0 -1 0 -0 -0 0 nan
nan 0 0 -0 -0 0 -0 -0 -0 -0 -0 -0 0 0 -0 -0 0 0 -0 0 1 -0 -0 0 -0 0 -0 -0 -1 -0 -0 0 -0 -0 -0 -0 -0 0 0 -0 -1 -0 0 -0 -0 0 nan
nan 0 -0 0 0 -0 -0 -0 -0 -0 -0 0 0 -0 0 -3 -1 -0 -0 -0 -0 0 -0 0 0 1 -0 -1 0 1 -0 -0 0 -0 -0 -0 -0 -0 0 0 -0 -0 -0 -0 -0 0 nan
nan 0 0 0 0 -0 -0 -0 0 0 -0 -0 -0 -0 -0 -1 -0 0 -0 -0 -1 -1 0 1 0 0 -1 -1 0 0 0 0 0 0 0 -0 0 -0 -0 -0 -1 -1 -0 0 -0 -0 nan
nan 0 0 0 0 0 0 0 0 0 -0 -0 -0 -0 -0 -1 -0 0 -0 -1 -1 -1 -1 0 -0 0 -0 -0 -0 0 0 0 0 0 -0 -0 -1 -0 -0 0 -1 -0 -0 -0 -0 -1 nan
nan nan nan nan nan nan nan nan nan nan nan nan nan nan nan nan nan nan nan nan nan nan nan nan nan nan nan nan nan nan nan nan nan nan nan nan nan nan nan nan nan nan nan nan nan nan nan
Wind_Speed
27 26 26 24 22 21 21 20 20 19 21 20 21 21 20 19 19 17 15 14 11 11 8 8 6 5 5 5 8 6 1 2 10 12 14 14 13 9 5 6 5 5 2 3 9 16 21
29 27 24 25 24 22 21 19 19 19 20 20 20 19 18 17 18 14 12 11 8 8 7 7 7 5 5 4 3 6 6 4 8 12 15 18 8 13 3 5 5 6 3 1 9 13 11
30 29 26 25 24 22 21 20 18 19 18 18 18 17 16 15 14 11 10 9 5 5 6 7 6 6 9 11 1 10 7 5 7 10 13 13 18 9 6 1 2 8 4 5 7 3 4
32 31 29 27 24 22 20 20 18 17 17 16 15 15 12 12 10 8 7 5 4 6 7 6 4 5 9 3 8 6 4 4 5 7 10 7 8 11 5 8 6 5 5 3 3 2 3
34 32 30 28 25 22 20 19 17 16 16 15 14 12 11 10 8 6 6 6 7 7 5 4 4 4 7 2 4 3 4 3 4 3 3 5 10 4 5 5 5 6 3 3 1 2 2
36 34 32 29 26 24 21 18 17 16 14 13 12 9 9 8 6 8 9 10 7 5 5 4 3 3 5 1 4 5 4 5 2 3 3 3 3 4 4 5 4 4 3 0 2 1 10
38 36 33 30 28 25 22 18 16 15 14 12 10 7 7 9 10 12 13 9 4 2 10 7 2 3 1 7 3 5 5 4 2 4 2 5 7 3 3 3 4 5 3 2 2 2 8
41 38 35 31 29 26 23 18 16 14 12 11 8 7 10 13 14 14 14 4 2 0 4 15 13 10 10 8 2 4 4 1 3 3 1 6 4 3 3 3 6 6 5 3 2 6 7
43 41 37 32 31 28 23 19 16 14 13 12 9 10 13 14 15 14 10 2 2 4 2 3 8 7 1 2 3 3 3 3 3 3 3 6 2 2 4 4 8 4 5 1 3 3 6
46 43 38 34 33 29 25 21 17 15 15 13 12 15 16 15 12 11 8 1 1 2 4 5 2 1 2 5 2 2 3 3 4 4 4 5 3 4 5 6 4 3 1 3 5 3 3
49 45 40 36 34 31 26 22 19 17 17 16 16 18 17 17 8 9 4 2 0 1 3 3 2 3 2 3 4 2 3 2 5 4 5 2 3 5 7 1 3 2 5 5 4 5 4
51 47 41 37 36 32 28 23 21 20 20 17 18 19 18 13 10 7 2 2 3 6 3 2 3 2 3 3 2 2 3 9 7 6 6 2 3 3 1 4 4 3 5 8 5 3 2
49 48 42 39 38 33 29 24 23 22 22 19 20 20 20 11 10 4 2 5 5 4 1 3 3 3 3 3 5 4 5 6 4 5 4 6 4 5 3 4 4 6 6 3 3 3 4
50 47 42 40 38 34 30 26 24 24 23 22 20 21 18 12 9 5 3 5 2 3 5 1 4 3 4 2 3 4 3 3 6 5 4 4 4 4 5 2 4 3 5 4 5 3 3
28 46 42 41 38 34 30 27 25 27 25 23 22 22 16 13 9 6 3 4 6 6 3 5 4 4 2 2 4 5 4 2 2 2 5 4 1 3 2 2 2 2 3 3 6 2 2
38 47 43 42 38 34 31 27 27 28 27 25 25 21 17 13 10 7 5 4 4 4 1 4 4 2 4 3 3 4 1 2 1 4 2 5 4 3 3 2 7 2 5 3 3 2 3
37 49 45 43 38 34 30 28 28 30 29 26 21 11 17 15 12 6 4 5 4 5 2 4 4 3 3 4 3 2 1 1 1 3 4 3 4 4 1 4 2 2 2 6 5 3 4
47 50 47 43 39 34 31 28 30 32 31 29 17 3 18 17 5 2 4 5 3 2 3 3 4 3 5 3 4 2 4 1 3 1 3 1 5 2 2 2 2 1 3 4 4 3 1
55 49 47 43 39 34 31 30 32 34 35 30 13 6 16 18 4 1 3 2 3 2 3 2 3 2 3 4 5 2 2 1 2 2 5 4 1 3 6 5 3 2 3 4 5 3 4
50 48 46 42 38 33 30 30 33 36 36 25 12 3 4 6 4 8 4 2 2 1 2 4 4 4 4 4 5 5 3 1 1 3 5 4 3 5 7 4 2 4 4 4 5 3 4
46 46 43 40 37 32 30 31 35 38 38 23 9 4 7 4 2 4 5 4 4 2 2 4 4 3 5 4 3 3 2 2 3 2 3 3 4 2 2 3 1 2 4 6 7 5 6
46 44 41 38 34 30 30 32 37 40 38 17 9 6 5 4 18 7 4 6 7 3 2 1 5 1 2 5 6 8 6 4 4 3 3 3 2 2 1 4 5 4 6 7 5 4 7
44 41 38 34 31 29 29 33 39 42 40 15 8 10 10 0 4 6 6 6 7 7 3 2 7 5 3 1 4 11 7 10 7 5 3 3 5 3 3 4 5 6 9 10 5 5 7
41 37 35 31 29 27 28 33 39 42 40 19 12 11 5 2 3 6 8 4 5 5 7 3 6 5 10 28 27 22 24 22 19 13 5 5 4 3 2 3 2 6 2 3 7 4 7
38 35 32 30 27 25 27 32 38 41 37 24 12 9 5 2 3 3 7 6 13 9 4 4 3 7 25 5 5 5 5 6 5 6 7 4 5 3 4 3 6 4 5 7 8 8 9
35 32 30 28 25 24 27 32 36 39 36 24 11 8 5 14 6 8 6 7 5 4 3 4 9 29 2 5 4 4 4 4 2 1 4 5 6 4 3 3 6 7 3 4 5 5 9
33 31 29 26 24 24 27 30 33 38 36 23 10 8 5 7 7 12 4 8 9 6 4 6 9 3 2 3 3 3 3 2 3 5 3 3 3 4 3 3 8 7 4 4 5 7 9
32 29 27 25 23 23 26 28 32 35 30 22 13 11 6 7 9 8 9 11 11 9 5 11 5 1 4 3 3 4 3 5 2 4 6 7 6 4 3 2 7 9 4 7 6 6 14
30 28 26 24 22 23 24 27 31 32 28 15 9 10 11 8 9 11 10 9 10 10 14 19 7 7 8 4 1 3 2 1 2 3 2 2 6 4 9 6 4 20 7 16 6 7 15
Wind_Direction
265 265 257 251 252 256 262 267 273 280 286 293 296 295 297 295 288 280 275 270 266 260 259 257 234 223 256 267 263 25 264 192 197 211 220 207 195 197 204 195 152 229 355 38 191 181 181
263 261 256 250 248 254 260 263 271 278 286 292 293 294 296 292 280 274 269 261 250 253 241 229 211 222 244 263 222 355 360 258 237 218 218 213 211 210 267 196 175 206 77 43 120 139 137
259 261 260 248 248 251 255 261 267 276 285 289 292 294 294 285 273 265 258 249 241 231 211 201 213 233 246 234 223 327 317 284 277 261 233 236 220 193 183 14 167 115 71 17 46 95 94
254 259 258 253 245 246 249 257 265 274 280 284 288 290 291 274 259 251 243 234 190 190 181 205 234 251 252 248 276 284 260 293 284 242 236 290 222 230 216 136 46 65 46 90 300 54 83
252 253 254 257 245 242 245 253 262 269 274 279 284 285 277 258 238 222 206 171 161 170 189 204 216 229 268 250 258 230 252 319 281 222 240 262 161 152 125 97 48 14 156 140 57 91 103
249 251 250 251 242 239 241 246 256 264 267 272 275 275 258 235 201 187 161 154 159 186 186 175 219 253 261 50 212 225 256 295 221 210 195 173 76 65 39 68 187 196 142 113 183 358 38
244 247 246 246 238 235 236 239 249 256 259 263 262 248 224 195 172 167 155 150 151 212 208 208 193 241 122 12 191 228 264 265 43 100 70 24 72 121 222 219 147 133 130 122 285 55 80
239 243 244 241 234 231 231 233 241 246 248 247 236 206 185 165 164 168 172 184 122 359 273 245 252 275 279 301 294 229 211 199 85 119 26 39 90 229 105 82 103 83 95 86 52 17 86
234 238 239 236 229 227 226 226 229 232 234 224 203 179 165 161 172 182 181 120 311 291 227 244 249 251 279 203 151 143 169 142 122 99 53 122 135 132 115 56 86 47 108 71 135 88 72
229 234 235 231 225 222 221 221 219 218 221 206 186 171 166 167 183 189 228 194 328 330 69 292 225 263 203 165 73 106 116 165 39 130 100 74 8 112 70 74 93 93 68 113 110 88 154
227 230 231 226 220 217 216 214 209 208 208 199 184 173 170 172 166 191 186 259 248 63 90 250 207 163 152 149 137 51 56 170 132 125 93 245 67 66 61 71 78 109 74 66 88 85 95
227 226 226 221 215 213 213 209 203 202 202 192 186 174 173 184 178 184 222 135 136 44 259 205 179 147 81 58 47 103 100 80 86 70 43 50 44 60 87 53 57 112 54 37 50 72 52
227 221 222 216 211 208 210 205 201 196 195 187 186 177 179 181 171 177 125 153 46 125 350 193 152 125 99 32 33 49 32 26 100 86 24 11 348 333 48 78 44 71 64 11 358 8 218
218 215 218 213 208 206 205 203 198 194 188 184 185 177 179 181 168 161 133 58 145 241 209 133 126 89 124 128 19 26 71 55 26 73 97 125 343 8 345 79 155 76 139 151 211 195 247
234 211 214 210 206 204 201 201 195 190 185 180 186 176 185 170 157 155 160 79 210 215 204 131 62 90 77 62 114 76 57 91 32 26 126 136 14 314 49 59 109 174 54 157 108 30 57
233 207 209 206 203 202 198 198 192 188 182 177 178 176 175 163 145 152 83 209 233 218 193 98 133 120 140 153 82 77 96 322 102 51 175 187 104 31 342 79 44 109 146 58 11 135 260
232 206 204 200 198 200 193 197 191 185 178 174 182 167 170 162 148 141 151 222 268 258 199 121 160 136 131 133 95 84 138 356 10 11 69 118 94 285 19 27 158 25 55 54 106 111 159
224 200 199 195 193 195 191 192 190 182 175 178 186 118 169 164 84 69 155 195 284 297 67 90 100 102 142 124 94 104 160 190 356 285 85 29 121 117 187 278 247 173 135 127 112 203 92
209 196 193 191 191 189 190 189 189 182 179 174 170 111 168 177 135 269 258 267 260 332 30 79 105 113 81 123 100 127 140 341 19 76 155 179 33 63 354 354 346 172 109 101 104 85 195
187 191 188 187 188 187 188 189 187 182 179 179 164 99 137 187 152 142 150 209 192 32 76 80 114 96 97 72 29 147 135 20 44 94 107 111 100 152 185 198 171 171 158 150 132 125 180
187 187 184 185 185 184 187 189 184 181 179 184 171 181 162 185 209 141 132 179 164 117 77 52 53 80 136 116 81 112 127 115 52 109 61 92 126 109 63 11 353 232 187 181 193 183 170
185 184 182 182 181 182 187 188 183 182 181 192 151 140 138 139 153 118 153 198 167 131 79 81 118 100 89 149 176 191 142 183 186 53 75 18 167 132 182 359 10 283 251 218 223 205 256
181 180 178 177 177 184 187 186 183 183 182 190 153 156 177 337 113 112 193 174 199 122 46 118 157 107 65 155 106 105 108 110 125 128 110 77 128 102 260 4 345 327 224 201 199 193 165
177 174 174 173 179 182 185 184 184 184 184 186 176 162 144 197 140 176 167 156 156 183 144 84 116 100 128 114 101 90 79 75 68 44 70 123 97 72 185 25 352 242 265 225 208 221 207
170 170 170 173 175 179 181 182 184 184 181 188 185 182 166 124 169 113 149 117 108 91 79 93 57 131 140 119 66 50 354 21 9 38 26 68 116 91 140 198 299 289 201 185 174 259 197
165 165 169 168 170 176 179 180 183 184 181 189 200 203 199 129 229 153 137 159 139 119 47 77 109 150 118 77 74 131 192 204 274 32 55 59 66 110 103 148 222 240 264 170 111 294 206
160 163 163 163 166 171 173 176 179 181 183 192 212 208 179 110 141 158 152 163 140 112 105 121 146 195 69 70 83 140 225 190 182 179 201 34 14 160 130 231 286 243 195 144 106 245 181
158 159 159 158 161 162 164 169 172 172 178 190 211 196 147 113 132 164 150 153 150 147 135 154 89 291 49 73 123 203 145 218 139 184 179 170 155 201 109 64 279 168 98 164 221 202 181
155 154 153 153 152 152 154 161 168 171 170 183 213 145 129 123 125 134 137 165 182 165 143 164 170 160 163 90 103 108 147 145 134 237 64 234 190 183 185 215 230 194 223 226 234 238 215
Height
1499 1500 1500 1500 1503 1503 1503 1505 1505 1504 1504 1502 1501 1499 1496 1495 1495 1494 1494 1494 1494 1494 1495 1497 1498 1498 1498 1497 1492 1491 1491 1492 1493 1495 1496 1498 1501 1501 1500 1499 1500 1499 1499 1499 1498 1502 1505
1496 1496 1494 1497 1497 1499 1501 1501 1502 1501 1501 1499 1497 1496 1493 1492 1493 1492 1492 1492 1492 1494 1495 1496 1497 1497 1497 1497 1491 1491 1491 1491 1492 1492 1493 1494 1495 1496 1496 1494 1497 1497 1499 1500 1501 1503 1507
1490 1493 1493 1491 1494 1495 1496 1498 1498 1498 1497 1496 1494 1492 1490 1490 1491 1490 1491 1491 1491 1493 1495 1496 1496 1496 1496 1491 1491 1490 1490 1489 1490 1490 1490 1491 1494 1497 1496 1496 1497 1498 1502 1501 1503 1506 1509
1483 1488 1488 1489 1489 1490 1492 1494 1494 1494 1494 1493 1491 1490 1488 1488 1488 1489 1490 1490 1491 1494 1494 1496 1496 1496 1492 1490 1490 1490 1489 1489 1489 1489 1490 1492 1492 1495 1495 1497 1498 1503 1509 1517 1506 1505 1510
1479 1480 1483 1486 1486 1486 1487 1489 1492 1491 1490 1490 1488 1487 1487 1487 1487 1488 1490 1490 1492 1494 1495 1495 1496 1496 1490 1490 1490 1489 1489 1489 1488 1488 1489 1491 1492 1492 1496 1501 1512 1515 1522 1514 1510 1508 1509
1473 1475 1477 1480 1482 1482 1484 1485 1488 1488 1487 1487 1486 1484 1486 1486 1486 1489 1490 1491 1492 1494 1494 1495 1496 1498 1489 1489 1489 1489 1489 1489 1489 1488 1489 1489 1489 1495 1500 1506 1525 1516 1517 1517 1514 1511 1515
1464 1469 1471 1474 1477 1478 1480 1481 1483 1484 1485 1484 1484 1482 1484 1486 1486 1489 1490 1492 1496 1496 1493 1489 1490 1488 1487 1488 1488 1489 1489 1489 1488 1489 1493 1491 1501 1511 1504 1502 1502 1507 1510 1514 1513 1511 1523
1458 1462 1465 1468 1472 1474 1476 1477 1479 1481 1482 1483 1482 1482 1483 1485 1487 1489 1490 1490 1490 1492 1490 1487 1488 1487 1486 1488 1488 1488 1489 1490 1490 1496 1494 1500 1508 1501 1501 1501 1504 1507 1517 1518 1516 1516 1523
1449 1454 1459 1462 1466 1470 1471 1473 1475 1478 1480 1480 1480 1481 1484 1485 1488 1490 1490 1489 1489 1489 1488 1486 1485 1485 1486 1487 1488 1488 1490 1490 1491 1494 1497 1504 1504 1502 1502 1506 1508 1514 1518 1518 1520 1521 1525
1440 1446 1452 1455 1459 1464 1467 1468 1471 1474 1478 1478 1479 1481 1483 1486 1491 1490 1489 1489 1489 1488 1497 1489 1485 1485 1485 1485 1487 1488 1488 1490 1492 1500 1498 1504 1502 1504 1505 1508 1509 1516 1514 1516 1521 1528 1540
1431 1438 1445 1449 1453 1458 1462 1464 1466 1470 1474 1476 1478 1480 1483 1487 1487 1488 1490 1488 1488 1488 1523 1487 1484 1484 1484 1486 1488 1488 1488 1488 1493 1496 1500 1509 1505 1507 1510 1509 1507 1515 1514 1517 1521 1530 1535
1422 1431 1437 1442 1447 1453 1457 1459 1462 1466 1471 1474 1477 1479 1483 1485 1486 1488 1487 1487 1488 1506 1514 1487 1483 1484 1486 1486 1488 1488 1488 1488 1492 1498 1501 1505 1503 1506 1507 1508 1508 1511 1516 1523 1530 1537 1555
1412 1422 1431 1435 1441 1446 1452 1455 1458 1462 1468 1472 1476 1478 1481 1484 1485 1486 1486 1487 1506 1519 1486 1490 1487 1484 1487 1492 1491 1490 1495 1499 1503 1514 1516 1511 1512 1509 1508 1511 1512 1517 1528 1556 1555 1562 1559
1403 1412 1423 1430 1436 1441 1446 1450 1454 1459 1464 1469 1475 1476 1480 1483 1483 1484 1485 1490 1504 1493 1490 1483 1484 1487 1492 1490 1495 1496 1499 1507 1503 1505 1521 1527 1531 1513 1510 1512 1518 1522 1527 1553 1545 1563 1555
1392 1406 1415 1424 1431 1436 1441 1446 1450 1456 1461 1466 1473 1475 1478 1480 1481 1483 1485 1508 1501 1494 1481 1484 1485 1492 1493 1492 1495 1500 1505 1508 1507 1505 1515 1523 1523 1513 1512 1512 1514 1522 1535 1530 1551 1561 1564
1386 1398 1408 1417 1425 1431 1436 1442 1447 1453 1459 1463 1470 1473 1476 1478 1479 1482 1487 1497 1490 1482 1479 1480 1491 1490 1498 1496 1499 1503 1505 1508 1507 1506 1506 1513 1525 1516 1513 1513 1516 1517 1525 1540 1552 1556 1550
1377 1390 1401 1411 1420 1427 1431 1438 1443 1450 1456 1463 1469 1471 1472 1475 1478 1480 1496 1493 1485 1479 1478 1481 1488 1491 1494 1497 1500 1506 1509 1509 1507 1506 1505 1509 1519 1525 1517 1522 1524 1526 1530 1539 1545 1559 1565
1374 1385 1396 1406 1414 1422 1427 1434 1440 1447 1454 1461 1465 1468 1469 1473 1479 1484 1489 1484 1481 1478 1477 1479 1481 1486 1493 1496 1502 1505 1507 1507 1507 1507 1510 1512 1524 1537 1524 1520 1520 1521 1525 1534 1556 1549 1569
1364 1381 1391 1401 1410 1417 1423 1429 1437 1444 1450 1457 1461 1464 1468 1471 1486 1490 1482 1481 1480 1478 1479 1479 1483 1484 1489 1498 1507 1507 1507 1507 1506 1507 1510 1511 1526 1544 1536 1528 1521 1521 1527 1534 1541 1551 1551
1364 1378 1388 1397 1406 1413 1419 1426 1434 1441 1449 1456 1458 1467 1468 1471 1472 1476 1480 1481 1481 1479 1479 1480 1484 1485 1491 1498 1501 1508 1508 1508 1507 1508 1508 1510 1524 1528 1538 1526 1526 1525 1525 1530 1533 1556 1549
1362 1375 1384 1395 1402 1409 1415 1423 1430 1439 1447 1453 1453 1457 1460 1472 1473 1473 1476 1479 1481 1481 1480 1481 1484 1485 1490 1500 1503 1507 1507 1508 1509 1509 1510 1512 1523 1524 1528 1529 1524 1522 1523 1528 1529 1530 1536
1365 1375 1384 1393 1400 1405 1413 1420 1427 1436 1444 1450 1450 1453 1459 1463 1465 1472 1476 1480 1480 1480 1481 1484 1486 1489 1488 1495 1495 1505 1504 1506 1506 1509 1512 1515 1529 1525 1528 1531 1532 1527 1524 1525 1526 1525 1527
1366 1375 1384 1391 1397 1404 1410 1417 1425 1433 1442 1446 1448 1450 1454 1465 1467 1472 1476 1476 1478 1477 1483 1483 1484 1489 1492 1493 1493 1494 1498 1500 1503 1508 1515 1520 1529 1535 1540 1539 1536 1539 1519 1518 1516 1515 1516
1368 1377 1384 1390 1398 1403 1409 1415 1423 1431 1439 1446 1448 1450 1453 1469 1466 1467 1469 1472 1476 1478 1482 1485 1485 1488 1496 1494 1497 1500 1501 1505 1506 1511 1512 1523 1530 1545 1550 1548 1553 1510 1507 1507 1508 1506 1507
1370 1378 1384 1391 1397 1403 1408 1414 1422 1430 1439 1444 1447 1450 1450 1465 1463 1465 1468 1471 1476 1479 1482 1486 1487 1488 1492 1494 1505 1511 1520 1515 1517 1518 1517 1516 1529 1549 1553 1551 1525 1502 1503 1505 1505 1503 1498
1372 1379 1387 1392 1398 1403 1408 1414 1421 1429 1437 1443 1446 1448 1449 1452 1461 1461 1466 1469 1476 1482 1486 1489 1489 1492 1494 1499 1512 1527 1526 1515 1519 1518 1520 1521 1523 1536 1558 1553 1547 1506 1498 1498 1498 1513 1491
1375 1383 1389 1395 1400 1404 1408 1413 1420 1428 1436 1442 1445 1446 1448 1450 1456 1459 1462 1467 1471 1476 1485 1489 1492 1495 1494 1508 1528 1530 1523 1517 1522 1525 1531 1535 1539 1544 1568 1556 1527 1499 1497 1498 1514 1506 1488
1380 1387 1393 1398 1402 1405 1408 1414 1420 1428 1436 1441 1444 1445 1446 1448 1456 1458 1460 1463 1467 1471 1481 1487 1494 1495 1498 1510 1519 1523 1529 1519 1519 1514 1520 1523 1533 1543 1548 1556 1525 1495 1500 1505 1493 1487 1487
1385 1390 1395 1400 1405 1407 1411 1416 1422 1428 1435 1437 1440 1444 1445 1448 1456 1459 1461 1463 1465 1468 1471 1479 1481 1484 1487 1502 1513 1517 1522 1520 1519 1519 1512 1518 1510 1517 1517 1509 1493 1492 1489 1487 1487 1487 1486